Location: Barruelo
(41.2448°N, 3.8231°W)
Time: 07:37:44
(UTC+00:00)

Cosmos 2227 Rocket - Pass Details

Date: 17 March 2026
Orbit: 836 x 845 km, 71.0° (Epoch: 18 April)

Event Time Altitude Azimuth Distance (km) Brightness Sun altitude
Rises 21:16:45 0° 345° (NNW) 3,413 6.0 -31.9°
Reaches altitude 10° 21:19:34 10° 357° (N) 2,475 5.0 -32.3°
Enters shadow 21:21:53 20° 16° (NNE) 1,846 4.1 -32.7°
